P/2022 R1 ( PanSTARRS )

Japanese version
Home page
Updated on November 13, 2022

---------------------------------------------------------------------

* Profile

Discovery Date September 1, 2022
Magnitude 20.8 mag
Discoverer Pan-STARRS 2 telescope (Haleakala)

* Orbital Elements

Epoch 2022 Aug. 9.0 TT = JDT 2459800.5
T 2023 Oct. 13.31588 TT                                 Rudenko
q   3.5664304            (2000.0)            P               Q
n   0.05143744     Peri.  222.80045     +0.77702052     -0.62941655
a   7.1606071      Node   176.17653     +0.60675864     +0.74527325
e   0.5019374      Incl.    7.40793     +0.16758002     +0.22000591
P  19.2
>From 37 observations 2022 July 20-Nov. 8, mean residual 0".5.

* Magnitudes Graph

        m1 = 11.5 + 5 log d + 10.0 log r

---------------------------------------------------------------------

The orbital elements are published on M.P.E.C. 2022-V125.
The magnitudes graphs are made with Comet for Windows.

---------------------------------------------------------------------

Copyright(C) Seiichi Yoshida (comet@aerith.net). All rights reserved.